Location: Newark
(48.8604°N, 2.3376°E)
Time: 21:10:03
(UTC+00:00)

X-37B - Pass Details

Date: 27 September 2021
Orbit: 385 x 389 km, 45.0° (Epoch: 13 October)

Event Time Altitude Azimuth Distance (km) Brightness Sun altitude
Exits shadow 04:54:07 13° 251° (WSW) 1,254 2.5 -9.1°
Maximum altitude 04:56:44 41° 182° (S) 576 1.4 -8.7°
Drops below altitude 10° 04:59:45 10° 110° (ESE) 1,415 4.6 -8.2°
Sets 05:01:53 0° 103° (ESE) 2,270 6.1 -7.8°
